伽利略0213星导航星座 (GSAT0213 (GALILEO 17))

导读 | 豆包AI

GALILEO 17 (26D)是欧洲空间局(ESA)主导的伽利略全球卫星导航系统的组成卫星,于2016年11月17日发射升空。作为伽利略系统的中地球轨道导航卫星,它承担着全球定位、导航与授时服务任务,补充完善了伽利略系统的星座覆盖,提升了系统服务精度与可靠性,为民用、商用等领域提供独立的高精度卫星导航支撑,是欧洲自主卫星导航体系建设的重要节点。

Basic Information
目录编号:
41861
目录名称:
GALILEO 17 (26D)
国际标识:
2016-069C
轨道中心:
EARTH
卫星名称:
伽利略0213星
卫星全名:
伽利略0213星导航星座 (GSAT0213 (GALILEO 17))
卫星状态:
在轨 (已飞行3404 天)
发射日期:
2016-11-17 UTC
国别 :
(ESA)
星等 :
--
Orbit Information
数据来源 国际轨道数据 AOE轨道数据
星历时间 2026-03-11T22:14:39+0800
2天前
查看轨道信息
2026-03-10T07:00:00+0800
4天前
查看轨道信息
半长轴 29600.205km 29600.216km
偏心率 0.0005437 0.0005305
轨道倾角 55.435° 55.433°
近地点辐角 293.526° 292.976°
升交点赤经 103.789° 103.834°
平近点角 66.484° 143.489°
近地点 23205.974km 23206.376km
远地点 23238.162km 23237.782km
周期 844.699分钟 844.699分钟
每日圈数 1.70475 1.704749
Detailed Information
平衡模式:
三轴稳定
覆盖范围:
全球
运营商:
欧盟空间计划局
运营商所在国:
法国大都会
使用方式:
暂无
Satellite Introduction
伽利略定位系统(Galileo)是一个全球导航卫星系统,于2016年投入使用由欧盟通过ESA创建,由欧盟空间计划局(EUSPA)运营。该系统有两个地面操控站,并且在高纬度地区提供比其他系统更好的定位服务。该卫星仍在工作。
2D Orbit Map
3D Orbit Map
Orbit Altitude Analysis Chart
Orbit Inclination Analysis Chart
Orbit Comprehensive Analysis Chart
View Comprehensive Chart